DECAYED

CZ-6A DEB, 60868 (Decayed)

Orbit data source: Space-Track

CZ-6A DEB, 60868 was space debris in LEO originally from a launch on Tue, 06 Aug 2024 UTC launched from the Taiyaun Space Center, China (TSC). Debris objects in space refer to the collection of defunct objects orbiting the Earth. Examples of debris include non-operational satellites, rocket bodies, and fragments generated from explosions, collisions, or faulty payload assembly.

Not visible in the next 10 days
Identifier
60868, 2024-140JX
Orbit
Decayed
Country
Flag of CNCN / PRC
Related business
Manufacturer
SAST
Mission
Decayed spacecraft
Bus & Motor
Unknown
Mass
Unknown
Launch date (UTC)
2024-08-06 (2 years ago)
Launch vehicle
Unknown
Launch site
Taiyaun Space Center, China (TSC)
Object type
Payload
Rocket body
Debris
Shape & HBR
Unknown shape, 0.1 m
Radar Cross Section
Medium (>0.1 m² and <1 m²)

Expand to show TLE details & history
Last TLE update: 10 months ago

TLE from 10 months ago
0 CZ-6A DEB
1 60868U 24140JX  25237.72575179  .19548141 -20454-5  12259-1 0  9995
2 60868  88.9545 304.2063 0015695 286.7013  73.2562 16.17558268 55914
Epoch: 2025-08-25T17:25Z
TLE epoch observation values (Epoch: 2025-08-25T17:25:04.954Z)
Latitude
-0.00006°
Longitude
68.70797°
Altitude
226.548 km
Speed
7.772 km/s
True Right ascension
20h 16m 49s
True Declination
0° 00' 00"
Sunlit
Object was in full shadow at epoch
Visualization orbit readout
Latitude
Unknown
Longitude
Unknown
Altitude
Unknown
Speed
Unknown
Apparent Right ascension
Unknown
Apparent Declination
Unknown
Sunlit
N/A
Visualization observer readout
Local Sidereal Time
08:42:08
Azimuth
Unknown
Elevation
Unknown
Doppler factor
Unknown
Orbital elements
Apogee altitude
233.224 km
Perigee altitude
212.504 km
Semi-major axis
6,601.001 km
Eccentricity
0.00157
Inclination
88.9545°
RAAN
304.2063°
Arg. of periapsis
286.7013°
True anomaly
73.42852°
Mean anomaly
73.2562°
Eccentric anomaly
73.34235°
Mean motion
4.04696 °/min
Orbital period
88.96 mins
BSTAR
0.012259
Loading maneuver chart data...
Computing Atmospheric mass density...
Loading historical data...
Loading historical data...
Loading historical data...
Loading historical data...
Loading historical data...
Loading historical data...
Loading historical data...

Documentation

Showing up to 5 results
|